Location: Boissi�res
(45.2500°N, 2.3667°E)
Time: 13:56:35
(UTC+00:00)

Cosmos 2219 Rocket - Pass Details

Date: 03 March 2021
Orbit: 826 x 848 km, 71.0° (Epoch: 22 April)

Event Time Altitude Azimuth Distance (km) Brightness Sun altitude
Rises 21:06:45 0° 236° (WSW) 3,358 5.6 -35.7°
Reaches altitude 10° 21:09:28 10° 247° (WSW) 2,430 4.9 -36.1°
Maximum altitude 21:14:19 30° 308° (NW) 1,455 3.8 -36.9°
Drops below altitude 10° 21:19:13 10° 9° (N) 2,453 4.8 -37.6°
Sets 21:21:59 0° 20° (NNE) 3,394 5.5 -38.0°
